IXPE

Last updated on Thu Sep 10 2026 00:03:32 GMT+0000 (Coordinated Universal Time)

1 49954U 21121A 26252.58335648 .00010001 00000+0 52769-3 0 9990 2 49954 0.2302 38.7403 0006719 278.7539 191.2642 15.10929727 5035
UTC large
Height (km)
Speed (km/s)
/
Latitude / Longitude
Inclination (degrees)
Orbital Period (minutes)
Azimuth
Elevation
Range (km)
Doppler Factor

Next 0 passes for location: London (51.5072 / 0.1276)

No passes found over London.
IXPE